Weather History for KTOL - August, 2013

Change the Weather History Date:

Tuesday, August 13, 2013

  Actual Average Record
Temperature  
Mean Temperature 63 °F 72 °F  
Max Temperature 71 °F 83 °F 96 °F (1918)
Min Temperature 54 °F 62 °F 45 °F (1961)
Degree Days  
Heating Degree Days 2 0  
Month to date heating degree days 6 0  
Since 1 June heating degree days 50 38  
Since 1 July heating degree days 19 3  
Cooling Degree Days 0 7  
Month to date cooling degree days 56 100  
Year to date cooling degree days 557 588  
Since 1 June cooling degree days 463 535  
Growing Degree Days 14 (Base 50)    
Moisture  
Dew Point 54 °F    
Average Humidity 69    
Maximum Humidity 93    
Minimum Humidity 44    
Precipitation  
Precipitation 0.00 in 0.10 in 1.86 in (1956)
Month to date precipitation 1.50 1.37  
Year to date precipitation 26.29 21.54  
Snow  
Snow 0.00 in 0.00 in - ()
Month to date snowfall 0.0 0.0  
Since 1 June snowfall 0.0 0.0  
Since 1 July snowfall 0.0 0.0  
Snow Depth 0.00 in    
Sea Level Pressure  
Sea Level Pressure 29.95 in    
Wind  
Wind Speed 9 mph (NNW)    
Max Wind Speed 17 mph    
Max Gust Speed 23 mph    
Visibility 10 miles    
Events      
T = Trace of Precipitation, MM = Missing Value Source: NWS Daily Summary

Daily Weather History Graph

Daily Weather History Graph

Search for Another Location

Airport or City:

Trip Planner

Search our weather history database for the weather conditions in past years. The results will help you decide how hot, cold, wet, or windy it might be!

Date:

Astronomy

Aug. 13, 2013 Rise Set
Actual Time 6:42 AM EDT 8:37 PM EDT
Civil Twilight 6:12 AM EDT 9:07 PM EDT
Nautical Twilight 5:35 AM EDT 9:43 PM EDT
Astronomical Twilight 4:55 AM EDT 10:23 PM EDT
Moon 1:42 PM EDT (8/13) No Moon Set
Length of Visible Light 14h 55m
Length of Day
13h 55m
Waxing Crescent, 41% of the Moon is Illuminated
Aug 13
Waxing Crescent
Aug 14
First Quarter
Aug 20
Full
Aug 28
Last Quarter
Sep 5
New

Hourly Weather History & Observations

Time (EDT) Temp. Dew Point Humidity Pressure Visibility Wind Dir Wind Speed Gust Speed Precip Events Conditions
12:04 AM 68.0 °F 64.4 °F 88% 29.86 in 10.0 mi NNW 6.9 mph - 0.00 in   Partly Cloudy
12:52 AM 66.9 °F 63.0 °F 87% 29.84 in 10.0 mi Calm Calm - 0.00 in   Clear
1:52 AM 66.0 °F 63.0 °F 90% 29.85 in 10.0 mi Calm Calm - N/A   Overcast
2:52 AM 64.9 °F 62.1 °F 90% 29.83 in 10.0 mi West 4.6 mph - N/A   Clear
3:52 AM 64.0 °F 62.1 °F 93% 29.83 in 9.0 mi WNW 5.8 mph - N/A   Clear
4:52 AM 63.0 °F 61.0 °F 93% 29.85 in 9.0 mi NNW 8.1 mph - N/A   Clear
5:52 AM 62.1 °F 59.0 °F 90% 29.87 in 10.0 mi NNW 9.2 mph - N/A   Partly Cloudy
6:52 AM 60.1 °F 57.0 °F 90% 29.89 in 10.0 mi NNW 8.1 mph - N/A   Mostly Cloudy
7:52 AM 60.1 °F 55.9 °F 86% 29.91 in 10.0 mi North 12.7 mph 19.6 mph N/A   Mostly Cloudy
8:34 AM 59.0 °F 55.4 °F 88% 29.93 in 10.0 mi North 9.2 mph - N/A   Overcast
8:52 AM 60.1 °F 55.9 °F 86% 29.94 in 10.0 mi North 8.1 mph - N/A   Overcast
9:44 AM 60.8 °F 55.4 °F 82% 29.97 in 10.0 mi NNW 11.5 mph 17.3 mph N/A   Overcast
9:52 AM 60.1 °F 54.0 °F 80% 29.96 in 10.0 mi NNW 10.4 mph - N/A   Overcast
10:20 AM 60.8 °F 53.6 °F 77% 29.97 in 10.0 mi North 16.1 mph 20.7 mph N/A   Mostly Cloudy
10:52 AM 61.0 °F 52.0 °F 72% 29.97 in 10.0 mi NW 12.7 mph - N/A   Mostly Cloudy
11:12 AM 62.6 °F 50.0 °F 63% 29.99 in 10.0 mi North - - N/A   Scattered Clouds
11:36 AM 62.6 °F 51.8 °F 68% 29.99 in 10.0 mi North - - N/A   Mostly Cloudy
11:48 AM - - N/A% 29.98 in - NW 15.0 mph - N/A   Scattered Clouds
11:52 AM - - N/A% 29.98 in - NNW 10.4 mph - N/A   Scattered Clouds
12:52 PM 66.0 °F 50.0 °F 56% 29.99 in - North 11.5 mph - N/A   Unknown
1:52 PM 66.9 °F 48.9 °F 52% 29.99 in 10.0 mi WNW 12.7 mph 18.4 mph N/A   Partly Cloudy
2:52 PM 70.0 °F 48.0 °F 46% 29.99 in 10.0 mi North 12.7 mph - N/A   Partly Cloudy
3:52 PM 69.1 °F 46.9 °F 45% 29.99 in 10.0 mi NW 12.7 mph - N/A   Scattered Clouds
4:52 PM 68.0 °F 46.0 °F 45% 30.00 in 10.0 mi NNW 9.2 mph - N/A   Mostly Cloudy
5:52 PM 66.9 °F 46.0 °F 47% 30.01 in 10.0 mi NNW 10.4 mph 20.7 mph N/A   Mostly Cloudy
6:52 PM 66.0 °F 46.0 °F 48% 30.01 in 10.0 mi NNW 9.2 mph - N/A   Clear
7:52 PM 64.0 °F 46.9 °F 54% 30.01 in 10.0 mi NW 8.1 mph - N/A   Clear
8:52 PM 62.1 °F 48.0 °F 60% 30.02 in 10.0 mi WNW 4.6 mph - N/A   Partly Cloudy
9:52 PM 59.0 °F 48.0 °F 67% 30.04 in 10.0 mi NW 5.8 mph - N/A   Clear
10:52 PM 57.0 °F 48.0 °F 72% 30.05 in 10.0 mi NW 4.6 mph - N/A   Clear
11:52 PM 55.0 °F 48.0 °F 77% 30.06 in 10.0 mi NW 5.8 mph - N/A   Clear